sat.trackr.live / text

‹ back to catalog

STARLINK-1736

NORAD 46585 · 2020-070BF

PAYLOAD ACTIVE UNKNOWN

§ Identity

Operator
Country
US
Launch date
2020-10-06
Launch site
AFETR
Launch vehicle
Mass (kg)
RCS (m²)

Purposes: comms

External: N2YO · Heavens-Above · Gunter

§ Orbital elements

Epoch: 2026-05-25T06:00:02.000160Z

Period
90.56 min
Inclination
53.0307°
Eccentricity
0.0007400
Mean motion
15.90043913 rev/d
Perigee alt
297.2 km
Apogee alt
307.1 km
Semi-major
6,680.3 km
B*
1.1910e-3
RAAN
93.4123°
Arg perigee
77.5785°
Mean anomaly
27.1909°
Rev number
600

§ Raw data

STARLINK-17361 46585U 20070BF  26145.25002315  .00363591  60119-4  11910-2 0  99952 46585  53.0307  93.4123 0007400  77.5785  27.1909 15.90043913  6009

JSON: /api/v1/satellites/46585 · /tle

For live sub-satellite position, see the globe view (requires WebGL).

§ Visibility from observer

Set your observer location to see the next 7 days of passes ≥ 10°. The values pass through the URL so the page stays shareable.

No JS? Fill the form by hand. The geolocation button needs JavaScript.